Regional Weather Roundup
Issued by NWS

Home | Current Version | Previous Version | Graphics & Text | Print | Product List | Glossary On
Versions: 1 2 3 4 5 6 7 8 9 10 11 12 13 14 15 16 17 18 19 20 21 22 23 24 25 26 27 28 29 30 31 32 33 34 35 36 37 38 39 40 41 42 43 44 45 46 47 48 49 50
000
ASUS45 KBOI 010810
RWRID

IDAHO REGIONAL WEATHER ROUNDUP
NATIONAL WEATHER SERVICE BOISE ID
200 AM MDT SAT AUG 01 2015

NOTE: "FAIR" INDICATES FEW OR NO CLOUDS BELOW 12000 FEET
WITH NO SIGNIFICANT WEATHER AND/OR OBSTRUCTIONS TO VISIBILITY

IDZ012-014-010900-
SOUTHWEST IDAHO


CITY           SKY/WX    TMP DP  RH WIND       PRES   REMARKS
BOISE          PTCLDY    76  36  23 SE8       30.00S
CALDWELL       PTCLDY    64  46  52 E3        29.99S
$$

IDZ016-017-010900-
SOUTHCENTRAL IDAHO


CITY           SKY/WX    TMP DP  RH WIND       PRES   REMARKS
BURLEY         CLEAR     60  36  40 SE5       30.12F
JEROME         CLEAR     68  32  26 E8        30.11F
TWIN FALLS     CLEAR     72  24  16 S15       30.09F
$$

IDZ019>023-010900-
SOUTHEAST IDAHO


CITY           SKY/WX    TMP DP  RH WIND       PRES   REMARKS
IDAHO FALLS    CLEAR     54  44  69 N3        30.19F
POCATELLO      CLEAR     59  32  36 E6        30.17F
REXBURG        CLEAR     54  45  71 CALM      30.21S
$$

IDZ006-010-011-018-031-032-010900-
CENTRAL IDAHO MOUNTAINS


CITY           SKY/WX    TMP DP  RH WIND       PRES   REMARKS
MCCALL         PTCLDY    57  40  52 CALM      30.19F
HAILEY         CLEAR     63  36  36 NW12      30.24S
STANLEY          N/A     44  28  53 SE3       30.36S
SALMON         CLEAR     55  43  62 CALM      30.17R
CHALLIS        CLEAR     63  31  30 S6        30.24R
$$

IDZ002-004-006-007-026-010900-
NORTHERN IDAHO


CITY           SKY/WX    TMP DP  RH WIND       PRES   REMARKS
LEWISTON       CLEAR     77  33  20 SE5       29.92S
LOWELL           N/A     63  51  65 CALM      30.02S
COEUR D`ALENE  CLEAR     64  39  39 CALM      29.97S
MULLAN PASS    CLEAR     70  22  16 VRB5      30.25F
$$



USA.gov is the U.S. government's official web portal to all federal, state and local government web resources and services.